Regional Weather Roundup
Issued by NWS Memphis, TN

Home | Current Version | Previous Version | Text Only | Print | Product List | Glossary On
Versions: 1 2 3 4 5 6 7 8 9 10 11 12 13 14 15 16 17 18 19 20 21 22 23 24 25 26 27 28 29 30 31 32 33 34 35 36 37 38 39 40 41 42 43 44 45 46 47 48 49 50
000
ASUS44 KMEG 042110
RWRMEG
MEMPHIS CWA HOURLY WEATHER ROUNDUP
NATIONAL WEATHER SERVICE MEMPHIS TN
400 PM CDT WED MAY 04 2016

...WEST TENNESSEE...

CITY           SKY/WX    TMP DP  RH WIND       PRES   REMARKS
MEMPHIS INTL   MOSUNNY   78  47  33 NW17G31   29.76F
NWS MEMPHIS      N/A     77 N/A N/A MISG        N/A
JACKSON        SUNNY     74  46  36 NW18G25   29.74F
LEXINGTON      MOSUNNY   70  46  43 N13       29.73S
DYERSBURG      MOSUNNY   73  48  40 N20G26    29.76R
UNION CITY     MOSUNNY   72  45  37 N20       29.76R


...EASTERN ARKANSAS...

CITY           SKY/WX    TMP DP  RH WIND       PRES   REMARKS
JONESBORO      LGT RAIN  77  42  28 NW10G21   29.78S
WEST MEMPHIS   SUNNY     76  50  40 N12G21    29.77S
BATESVILLE     MOSUNNY   77  39  25 W13G18    29.82S
NEWPORT        MOSUNNY   77  40  26 NW20      29.81S
WALNUT RIDGE   SUNNY     77  43  29 NW17G24   29.79S
BLYTHEVILLE    MOSUNNY   74  47  38 N20G29    29.77S
NW BLYTHEVILLE PTSUNNY   75  43  31 N13G25    29.77S
SEARCY         SUNNY     78  43  28 NW13G20   29.82S
STUTTGART      MOSUNNY   81  54  39 W23G29    29.80F
PINE BLUFF     MOSUNNY   80  50  34 W14G22    29.81F
MONTICELLO     MOSUNNY   80  51  36 NW9G22    29.82F


...NORTH MISSISSIPPI...

CITY           SKY/WX    TMP DP  RH WIND       PRES   REMARKS
TUPELO         CLOUDY    73  45  36 W8        29.75F
OXFORD         MOSUNNY   73  50  43 NW13G23   29.78F
BATESVILLE     FAIR      77  50  39 W7G21     29.78F
OLIVE BRANCH   MOSUNNY   75  48  38 MISG      29.74F
TUNICA         PTSUNNY   72  54  53 NW12      29.79F
CORINTH        MOSUNNY   72  50  46 W16G23    29.72F
GREENWOOD      PTSUNNY   77  48  35 NW12G21   29.81F
COLUMBUS       MOSUNNY   77  56  49 W17G25    29.77F
STARKVILLE     FAIR      73  46  38 W8G16     29.78F
GOLDEN TRIANGL PTSUNNY   75  48  38 W14       29.77F


...SOUTHEAST MISSOURI...

CITY           SKY/WX    TMP DP  RH WIND       PRES   REMARKS
KENNETT        FAIR      73  45  35 N17G23    29.76S HAZE
WEST PLAINS    MOSUNNY   72  40  31 NW15G26   29.86S
POPLAR BLUFF   MOSUNNY   71  42  35 N10G23    29.78S
CAPE GIRARDEAU MOSUNNY   69  41  36 N20       29.78S


...NORTHWEST ALABAMA...

CITY           SKY/WX    TMP DP  RH WIND       PRES   REMARKS
MUSCLE SHOALS  MOSUNNY   74  45  35 W17G26    29.71F


...MIDDLE TENNESSEE...

CITY           SKY/WX    TMP DP  RH WIND       PRES   REMARKS
NASHVILLE      PTSUNNY   67  51  56 W13G25    29.71F
CLARKSVILLE    TSTM      61  50  67 NW23G33   29.74R
COLUMBIA       PTSUNNY  N/A N/A N/A VRB6      29.72F


...WESTERN KENTUCKY...

CITY           SKY/WX    TMP DP  RH WIND       PRES   REMARKS
PADUCAH        MOSUNNY   69  41  36 N23G30    29.76S
FORT CAMPBELL  MOSUNNY   59  52  77 W8        29.73R


...CENTRAL ARKANSAS...

CITY           SKY/WX    TMP DP  RH WIND       PRES   REMARKS
LITTLE ROCK    PTSUNNY   83  49  30 NW14G30   29.81F


SKY/WX REPORTED AS FAIR MEANS FEW OR NO CLOUDS BELOW
12 THOUSAND FEET.




USA.gov is the U.S. government's official web portal to all federal, state and local government web resources and services.